| time (UTC) | temp F | wind direction | speed MPH | gust MPH | rain 1hr in | rain 24hr in | rain mn in | humidity % | barometer mb |
| 20260905210334 | 99 | 126 | 2.0 | 5.0 | 0.00 | 0.00 | 0.00 | 45 | 1011.7 |
| 20260905205325 | 97 | 87 | 3.0 | 7.0 | 0.00 | 0.00 | 0.00 | 48 | 1011.9 |
| 20260905204336 | 97 | 59 | 3.0 | 7.0 | 0.00 | 0.00 | 0.00 | 48 | 1012.1 |
| 20260905203344 | 97 | 98 | 2.0 | 8.0 | 0.00 | 0.00 | 0.00 | 48 | 1012.3 |
| 20260905202335 | 98 | 123 | 6.0 | 11.0 | 0.00 | 0.00 | 0.00 | 45 | 1012.4 |
| 20260905201345 | 96 | 110 | 2.0 | 6.0 | 0.00 | 0.00 | 0.00 | 49 | 1012.5 |
| 20260905200327 | 96 | 34 | 2.0 | 6.0 | 0.00 | 0.00 | 0.00 | 50 | 1012.6 |
| 20260905195346 | 96 | 68 | 4.0 | 7.0 | 0.00 | 0.00 | 0.00 | 46 | 1012.8 |
| 20260905194328 | 96 | 233 | 2.0 | 11.0 | 0.00 | 0.00 | 0.00 | 47 | 1013.1 |
| 20260905193338 | 96 | 92 | 0.0 | 5.0 | 0.00 | 0.00 | 0.00 | 51 | 1013.1 |
| 20260905192329 | 95 | 155 | 2.0 | 5.0 | 0.00 | 0.00 | 0.00 | 50 | 1013.3 |
| 20260905191340 | 96 | 115 | 3.0 | 8.0 | 0.00 | 0.00 | 0.00 | 50 | 1013.5 |
| 20260905190330 | 96 | 107 | 3.0 | 5.0 | 0.00 | 0.00 | 0.00 | 51 | 1013.7 |
| 20260905185337 | 96 | 253 | 2.0 | 10.0 | 0.00 | 0.00 | 0.00 | 51 | 1013.9 |
| 20260905184328 | 96 | 179 | 2.0 | 11.0 | 0.00 | 0.00 | 0.00 | 52 | 1014.0 |
| 20260905183339 | 96 | 168 | 4.0 | 10.0 | 0.00 | 0.00 | 0.00 | 51 | 1014.2 |
| 20260905182329 | 96 | 144 | 3.0 | 7.0 | 0.00 | 0.00 | 0.00 | 52 | 1014.4 |
| 20260905181340 | 96 | 235 | 3.0 | 7.0 | 0.00 | 0.00 | 0.00 | 52 | 1014.5 |
| 20260905180330 | 94 | 152 | 3.0 | 7.0 | 0.00 | 0.00 | 0.00 | 56 | 1014.8 |
| 20260905175341 | 95 | 275 | 1.0 | 7.0 | 0.00 | 0.00 | 0.00 | 53 | 1015.0 |
| 20260905174333 | 94 | 139 | 4.0 | 9.0 | 0.00 | 0.00 | 0.00 | 54 | 1015.1 |
| 20260905173342 | 94 | 161 | 5.0 | 8.0 | 0.00 | 0.00 | 0.00 | 55 | 1015.3 |
| 20260905172333 | 92 | 113 | 1.0 | 7.0 | 0.00 | 0.00 | 0.00 | 60 | 1015.3 |
| 20260905171345 | 92 | 219 | 3.0 | 7.0 | 0.00 | 0.00 | 0.00 | 60 | 1015.4 |
| 20260905170326 | 92 | 94 | 4.0 | 8.0 | 0.00 | 0.00 | 0.00 | 61 | 1015.4 |
| 20260905165347 | 93 | 241 | 2.0 | 10.0 | 0.00 | 0.00 | 0.00 | 60 | 1015.6 |
| 20260905164328 | 93 | 207 | 2.0 | 6.0 | 0.00 | 0.00 | 0.00 | 62 | 1015.7 |
| 20260905163339 | 91 | 240 | 2.0 | 8.0 | 0.00 | 0.00 | 0.00 | 63 | 1015.7 |
| 20260905162330 | 91 | 233 | 3.0 | 8.0 | 0.00 | 0.00 | 0.00 | 64 | 1015.8 |
| 20260905161341 | 91 | 194 | 2.0 | 8.0 | 0.00 | 0.00 | 0.00 | 65 | 1015.9 |
| 20260905160332 | 91 | 210 | 1.0 | 12.0 | 0.00 | 0.00 | 0.00 | 66 | 1015.5 |
| 20260905155322 | 90 | 140 | 2.0 | 7.0 | 0.00 | 0.00 | 0.00 | 67 | 1015.6 |
| 20260905154334 | 89 | 214 | 3.0 | 8.0 | 0.00 | 0.00 | 0.00 | 69 | 1015.6 |
| 20260905153325 | 89 | 212 | 2.0 | 8.0 | 0.00 | 0.00 | 0.00 | 69 | 1015.7 |
| 20260905152335 | 89 | 233 | 1.0 | 6.0 | 0.00 | 0.00 | 0.00 | 71 | 1015.7 |
| 20260905144336 | 86 | 183 | 2.0 | 5.0 | 0.00 | 0.00 | 0.00 | 80 | 1015.6 |
| 20260905143327 | 85 | 112 | 4.0 | 8.0 | 0.00 | 0.00 | 0.00 | 81 | 1015.6 |
| 20260905142338 | 84 | 276 | 2.0 | 6.0 | 0.00 | 0.00 | 0.00 | 84 | 1015.7 |
| 20260905141328 | 83 | 165 | 0.0 | 4.0 | 0.00 | 0.00 | 0.00 | 87 | 1015.5 |
| 20260905140340 | 82 | 207 | 1.0 | 5.0 | 0.00 | 0.00 | 0.00 | 88 | 1015.4 |
| 20260905135330 | 82 | 205 | 2.0 | 5.0 | 0.00 | 0.02 | 0.00 | 88 | 1015.4 |
| 20260905134340 | 83 | 127 | 1.0 | 4.0 | 0.00 | 0.02 | 0.00 | 88 | 1015.3 |
| 20260905133330 | 83 | 140 | 0.0 | 3.0 | 0.00 | 0.02 | 0.00 | 89 | 1015.2 |
| 20260905132341 | 81 | 145 | 0.0 | 1.0 | 0.00 | 0.02 | 0.00 | 90 | 1015.1 |
| 20260905131332 | 80 | 145 | 0.0 | 1.0 | 0.00 | 0.02 | 0.00 | 91 | 1015.0 |
| 20260905130342 | 79 | 146 | 0.0 | 1.0 | 0.00 | 0.02 | 0.00 | 92 | 1014.8 |
| 20260905125325 | 78 | 145 | 0.0 | 0.0 | 0.00 | 0.07 | 0.00 | 93 | 1014.8 |
| 20260905124344 | 78 | 145 | 0.0 | 0.0 | 0.00 | 0.07 | 0.00 | 94 | 1014.7 |
| 20260905123326 | 76 | 145 | 0.0 | 1.0 | 0.00 | 0.07 | 0.00 | 96 | 1014.5 |
| 20260905122333 | 75 | 145 | 0.0 | 0.0 | 0.00 | 0.07 | 0.00 | 97 | 1014.5 |
| 20260905121323 | 75 | 145 | 0.0 | 0.0 | 0.00 | 0.07 | 0.00 | 97 | 1014.4 |
| 20260905120334 | 75 | 145 | 0.0 | 0.0 | 0.00 | 0.07 | 0.00 | 97 | 1014.3 |
| 20260905115324 | 75 | 145 | 0.0 | 1.0 | 0.00 | 0.07 | 0.00 | 97 | 1014.1 |
| 20260905114335 | 75 | 145 | 0.0 | 0.0 | 0.00 | 0.07 | 0.00 | 97 | 1014.1 |
| 20260905113326 | 75 | 145 | 0.0 | 1.0 | 0.00 | 0.07 | 0.00 | 97 | 1014.0 |
| 20260905112336 | 75 | 145 | 0.0 | 0.0 | 0.00 | 0.07 | 0.00 | 97 | 1014.0 |
| 20260905111327 | 76 | 145 | 0.0 | 0.0 | 0.00 | 0.07 | 0.00 | 96 | 1013.8 |
| 20260905110337 | 76 | 145 | 0.0 | 0.0 | 0.00 | 0.07 | 0.00 | 96 | 1013.9 |
| 20260905105328 | 76 | 145 | 0.0 | 0.0 | 0.00 | 0.07 | 0.00 | 96 | 1013.9 |
| 20260905104339 | 76 | 145 | 0.0 | 0.0 | 0.00 | 0.07 | 0.00 | 95 | 1013.8 |
| 20260905103329 | 76 | 145 | 0.0 | 0.0 | 0.00 | 0.07 | 0.00 | 95 | 1013.9 |
| 20260905102340 | 77 | 145 | 0.0 | 0.0 | 0.00 | 0.07 | 0.00 | 95 | 1014.0 |
| 20260905101350 | 77 | 145 | 0.0 | 0.0 | 0.00 | 0.07 | 0.00 | 94 | 1013.9 |
| 20260905100341 | 77 | 145 | 0.0 | 0.0 | 0.00 | 0.07 | 0.00 | 94 | 1013.9 |
| 20260905095323 | 77 | 145 | 0.0 | 0.0 | 0.00 | 0.07 | 0.00 | 94 | 1014.0 |
| 20260905094333 | 77 | 145 | 0.0 | 0.0 | 0.00 | 0.07 | 0.00 | 94 | 1013.8 |
| 20260905093324 | 78 | 145 | 0.0 | 1.0 | 0.00 | 0.07 | 0.00 | 93 | 1013.8 |
| 20260905092334 | 78 | 145 | 1.0 | 4.0 | 0.00 | 0.07 | 0.00 | 92 | 1013.7 |
| 20260905091325 | 78 | 200 | 0.0 | 6.0 | 0.00 | 0.07 | 0.00 | 92 | 1013.8 |
| 20260905090336 | 78 | 160 | 0.0 | 5.0 | 0.00 | 0.07 | 0.00 | 92 | 1013.8 |
| 20260905085326 | 78 | 126 | 1.0 | 4.0 | 0.00 | 0.07 | 0.00 | 92 | 1013.9 |
| 20260905084338 | 78 | 172 | 1.0 | 3.0 | 0.00 | 0.07 | 0.00 | 92 | 1013.9 |
| 20260905083326 | 78 | 170 | 1.0 | 5.0 | 0.00 | 0.07 | 0.00 | 91 | 1014.0 |
| 20260905082338 | 78 | 196 | 0.0 | 4.0 | 0.00 | 0.07 | 0.00 | 91 | 1014.0 |
| 20260905081329 | 79 | 165 | 0.0 | 2.0 | 0.00 | 0.07 | 0.00 | 90 | 1014.0 |
| 20260905080335 | 79 | 176 | 1.0 | 3.0 | 0.00 | 0.07 | 0.00 | 90 | 1014.0 |
| 20260905075324 | 79 | 159 | 0.0 | 2.0 | 0.00 | 0.07 | 0.00 | 89 | 1014.1 |
| 20260905074335 | 79 | 147 | 1.0 | 4.0 | 0.00 | 0.07 | 0.00 | 88 | 1014.0 |
| 20260905073327 | 79 | 188 | 1.0 | 3.0 | 0.00 | 0.07 | 0.00 | 88 | 1014.2 |
| 20260905072338 | 79 | 133 | 1.0 | 3.0 | 0.00 | 0.07 | 0.00 | 87 | 1014.2 |
| 20260905071329 | 79 | 145 | 1.0 | 3.0 | 0.00 | 0.07 | 0.00 | 87 | 1014.2 |
| 20260905070339 | 80 | 151 | 1.0 | 3.0 | 0.00 | 0.07 | 0.00 | 86 | 1014.4 |
| 20260905065350 | 80 | 187 | 2.0 | 5.0 | 0.00 | 0.07 | 0.00 | 86 | 1014.4 |
| 20260905064340 | 80 | 136 | 2.0 | 5.0 | 0.00 | 0.07 | 0.00 | 85 | 1014.4 |
| 20260905063323 | 80 | 141 | 1.0 | 6.0 | 0.00 | 0.07 | 0.00 | 84 | 1014.5 |
| 20260905062332 | 80 | 145 | 0.0 | 4.0 | 0.00 | 0.07 | 0.00 | 84 | 1014.5 |
| 20260905061324 | 81 | 133 | 1.0 | 4.0 | 0.00 | 0.07 | 0.00 | 83 | 1014.5 |
| 20260905060335 | 81 | 164 | 1.0 | 6.0 | 0.00 | 0.07 | 0.00 | 82 | 1014.5 |
| 20260905055322 | 81 | 195 | 0.0 | 6.0 | 0.00 | 0.07 | 0.00 | 81 | 1014.5 |
| 20260905054333 | 81 | 203 | 2.0 | 5.0 | 0.00 | 0.07 | 0.00 | 81 | 1014.7 |
| 20260905053322 | 81 | 167 | 2.0 | 6.0 | 0.00 | 0.07 | 0.00 | 80 | 1014.4 |
| 20260905052332 | 81 | 143 | 2.0 | 7.0 | 0.00 | 0.07 | 0.00 | 80 | 1014.5 |
| 20260905051323 | 82 | 149 | 2.0 | 6.0 | 0.00 | 0.07 | 0.00 | 80 | 1014.6 |
| 20260905050334 | 82 | 153 | 2.0 | 6.0 | 0.00 | 0.07 | 0.00 | 80 | 1014.6 |
| 20260905045325 | 82 | 141 | 1.0 | 4.0 | 0.00 | 0.07 | 0.07 | 80 | 1014.7 |
| 20260905044335 | 82 | 154 | 0.0 | 5.0 | 0.00 | 0.07 | 0.07 | 80 | 1014.6 |
| 20260905043326 | 82 | 144 | 2.0 | 7.0 | 0.00 | 0.07 | 0.07 | 79 | 1014.5 |
| 20260905042337 | 82 | 124 | 1.0 | 7.0 | 0.00 | 0.07 | 0.07 | 79 | 1014.6 |
| 20260905041328 | 83 | 134 | 2.0 | 7.0 | 0.00 | 0.07 | 0.07 | 78 | 1014.5 |
| 20260905040339 | 83 | 126 | 3.0 | 7.0 | 0.00 | 0.07 | 0.07 | 78 | 1014.4 |
| 20260905035344 | 83 | 135 | 2.0 | 5.0 | 0.00 | 0.07 | 0.07 | 78 | 1014.4 |
| 20260905034336 | 83 | 155 | 1.0 | 5.0 | 0.00 | 0.07 | 0.07 | 78 | 1014.4 |
| 20260905033346 | 83 | 121 | 2.0 | 5.0 | 0.00 | 0.07 | 0.07 | 78 | 1014.4 |
| 20260905032327 | 83 | 101 | 0.0 | 4.0 | 0.00 | 0.07 | 0.07 | 78 | 1014.4 |
| 20260905031347 | 83 | 137 | 1.0 | 4.0 | 0.00 | 0.07 | 0.07 | 78 | 1014.3 |
| 20260905030328 | 84 | 130 | 1.0 | 5.0 | 0.00 | 0.07 | 0.07 | 78 | 1014.2 |
| 20260905025340 | 84 | 129 | 1.0 | 5.0 | 0.00 | 0.07 | 0.07 | 77 | 1014.1 |
| 20260905024328 | 84 | 129 | 2.0 | 5.0 | 0.00 | 0.07 | 0.07 | 77 | 1014.1 |
| 20260905023339 | 84 | 143 | 2.0 | 5.0 | 0.00 | 0.07 | 0.07 | 77 | 1014.0 |
| 20260905022330 | 84 | 136 | 1.0 | 6.0 | 0.00 | 0.07 | 0.07 | 76 | 1013.7 |
| 20260905021321 | 84 | 124 | 3.0 | 8.0 | 0.00 | 0.07 | 0.07 | 76 | 1013.8 |
| 20260905020332 | 85 | 131 | 1.0 | 8.0 | 0.00 | 0.07 | 0.07 | 76 | 1013.6 |
| 20260905015321 | 85 | 117 | 2.0 | 7.0 | 0.00 | 0.07 | 0.07 | 75 | 1013.5 |
| 20260905014332 | 85 | 136 | 4.0 | 8.0 | 0.00 | 0.07 | 0.07 | 75 | 1013.3 |
| 20260905013322 | 85 | 149 | 3.0 | 7.0 | 0.00 | 0.07 | 0.07 | 75 | 1013.3 |
| 20260905012332 | 85 | 115 | 3.0 | 9.0 | 0.00 | 0.07 | 0.07 | 74 | 1013.3 |
| 20260905011322 | 86 | 137 | 1.0 | 6.0 | 0.00 | 0.07 | 0.07 | 73 | 1013.2 |
| 20260905010333 | 86 | 147 | 2.0 | 6.0 | 0.00 | 0.07 | 0.07 | 72 | 1013.3 |
| 20260905005345 | 86 | 153 | 2.0 | 8.0 | 0.00 | 0.07 | 0.07 | 71 | 1013.1 |
| 20260905004335 | 87 | 117 | 2.0 | 9.0 | 0.00 | 0.07 | 0.07 | 70 | 1013.1 |
| 20260905003346 | 88 | 117 | 4.0 | 7.0 | 0.00 | 0.07 | 0.07 | 69 | 1013.0 |
| 20260905002326 | 88 | 139 | 6.0 | 13.0 | 0.00 | 0.07 | 0.07 | 67 | 1013.0 |
| 20260905001346 | 89 | 107 | 6.0 | 13.0 | 0.00 | 0.07 | 0.07 | 65 | 1012.7 |
| 20260905000326 | 90 | 148 | 4.0 | 12.0 | 0.00 | 0.07 | 0.07 | 63 | 1012.7 |
| 20260904235337 | 90 | 120 | 5.0 | 12.0 | 0.00 | 0.07 | 0.07 | 59 | 1012.6 |
| 20260904234327 | 91 | 101 | 4.0 | 11.0 | 0.00 | 0.07 | 0.07 | 59 | 1012.6 |
| 20260904233331 | 91 | 119 | 4.0 | 16.0 | 0.00 | 0.07 | 0.07 | 60 | 1012.6 |
| 20260904232322 | 93 | 198 | 6.0 | 20.0 | 0.00 | 0.07 | 0.07 | 59 | 1012.5 |
| 20260904231332 | 96 | 153 | 7.0 | 14.0 | 0.00 | 0.07 | 0.07 | 55 | 1012.3 |
| 20260904230323 | 97 | 288 | 2.0 | 9.0 | 0.00 | 0.07 | 0.07 | 47 | 1012.3 |
| 20260904225333 | 97 | 201 | 5.0 | 11.0 | 0.00 | 0.07 | 0.07 | 46 | 1012.4 |
| 20260904224325 | 96 | 182 | 2.0 | 8.0 | 0.00 | 0.07 | 0.07 | 45 | 1012.3 |
| 20260904223336 | 96 | 191 | 3.0 | 9.0 | 0.00 | 0.07 | 0.07 | 44 | 1012.5 |
| 20260904222326 | 96 | 203 | 5.0 | 10.0 | 0.00 | 0.07 | 0.07 | 43 | 1012.5 |
| 20260904221338 | 96 | 230 | 5.0 | 11.0 | 0.00 | 0.07 | 0.07 | 44 | 1012.5 |
| 20260904220329 | 96 | 110 | 3.0 | 9.0 | 0.00 | 0.07 | 0.07 | 45 | 1012.5 |
| 20260904215339 | 96 | 109 | 4.0 | 9.0 | 0.00 | 0.07 | 0.07 | 44 | 1012.7 |
| 20260904214328 | 96 | 208 | 4.0 | 10.0 | 0.00 | 0.07 | 0.07 | 45 | 1012.9 |
| 20260904213337 | 96 | 153 | 3.0 | 7.0 | 0.00 | 0.07 | 0.07 | 43 | 1013.1 |
| 20260904212341 | 96 | 151 | 3.0 | 9.0 | 0.00 | 0.07 | 0.07 | 44 | 1013.2 |
| 20260904211332 | 95 | 122 | 5.0 | 8.0 | 0.00 | 0.07 | 0.07 | 44 | 1013.2 |